Tracking 19575 objects as of 19-Feb-2019
HD Live streaming from Space Station
objects crossing your sky now

METEOR 2-1

Track METEOR 2-1 now!
10-day predictions
METEOR 2-1 is classified as:


NORAD ID: 8026
Int'l Code: 1975-064A
Perigee: 849.6 km
Apogee: 881.5 km
Inclination: 81.3 °
Period: 102.1 minutes
Semi major axis: 7236 km
RCS: 5.6919 m2 (large)
Launch date: July 11, 1975
Source: Commonwealth of Independent States (former USSR) (CIS)
Launch site: PLESETSK MISSILE AND SPACE COMPLEX (PKMTR)
aabbcc
Your satellite tracking list
Your tracking list is empty




NASA's NSSDC Master Catalog

Two Line Element Set (TLE):
1  8026U 75064A   19048.63690718  .00000016  00000-0  17619-5 0  9996
2  8026  81.2776  99.9411 0022053 246.3776 113.5080 14.10292905242301
Source of the keplerian elements: AFSPC